This is the latest recevied weather packets stored in our database for station/object KC9GSD. If no packets are shown the sender has not sent any weather packets the latest 10 day(s).
| Time | Temp. | Humidity | Pressure | Rain* | Wind** | Luminosity | Snow |
|---|---|---|---|---|---|---|---|
| 1778028554 | 20° C | 65% | 1011.4 hPa | 0 mm | - | 0 W/m² | - |
| 1778028253 | 20° C | 64% | 1011.6 hPa | 0 mm | - | 0 W/m² | - |
| 1778027948 | 20° C | 63% | 1011.5 hPa | 0 mm | - | 1 W/m² | - |
| 1778027645 | 20.56° C | 67% | 1011.4 hPa | 0 mm | - | 1 W/m² | - |
| 1778027342 | 20.56° C | 62% | 1011.5 hPa | 0 mm | - | 2 W/m² | - |
| 1778027038 | 20.56° C | 65% | 1011.6 hPa | 0 mm | - | 2 W/m² | - |
| 1778026733 | 20.56° C | 61% | 1011.5 hPa | 0 mm | - | 4 W/m² | - |
| 1778026430 | 20.56° C | 64% | 1011.6 hPa | 0 mm | - | 6 W/m² | - |
| 1778026127 | 20.56° C | 63% | 1011.5 hPa | 0 mm | - | 8 W/m² | - |
| 1778025825 | 21.11° C | 61% | 1011.8 hPa | 0 mm | - | 11 W/m² | - |
| 1778025522 | 21.11° C | 61% | 1011.9 hPa | 0 mm | - | 13 W/m² | - |
| 1778025219 | 21.11° C | 62% | 1011.9 hPa | 0 mm | - | 18 W/m² | - |
| 1778024916 | 21.11° C | 59% | 1012 hPa | 0 mm | - | 25 W/m² | - |
| 1778024614 | 21.11° C | 60% | 1012 hPa | 0 mm | - | 28 W/m² | - |
| 1778024311 | 21.11° C | 59% | 1012 hPa | 0 mm | - | 34 W/m² | - |
| 1778024009 | 21.11° C | 60% | 1012 hPa | 0 mm | - | 44 W/m² | - |
| 1778023706 | 21.67° C | 60% | 1011.9 hPa | 0 mm | - | 50 W/m² | - |
| 1778023403 | 21.67° C | 59% | 1012.2 hPa | 0 mm | - | 68 W/m² | - |
| 1778023100 | 21.11° C | 59% | 1012.4 hPa | 0 mm | - | 64 W/m² | - |
| 1778022798 | 21.11° C | 58% | 1012.2 hPa | 0 mm | - | 49 W/m² | - |
| 1778022496 | 21.11° C | 58% | 1012.4 hPa | 0 mm | - | 41 W/m² | - |
| 1778022193 | 21.11° C | 60% | 1012.2 hPa | 0 mm | - | 45 W/m² | - |
| 1778021889 | 21.67° C | 59% | 1012.5 hPa | 0 mm | - | 39 W/m² | - |
| 1778021587 | 21.67° C | 58% | 1012.5 hPa | 0 mm | - | 40 W/m² | - |
| 1778021281 | 21.67° C | 60% | 1012.5 hPa | 0 mm | - | 52 W/m² | - |
* Rain latest hour (hover to see other rain measurements)
** Current wind speed in m/s (hover to see current wind gust speed)